Regional Weather Roundup
Issued by NWS Charleston, SC

Current Version | Previous Version | Graphics & Text | Print | Product List | Glossary On
Versions: 1 2 3 4 5 6 7 8 9 10 11 12 13 14 15 16 17 18 19 20 21 22 23 24 25 26 27 28 29 30 31 32 33 34 35 36 37 38 39 40 41 42 43 44 45 46 47 48 49 50
000
ASUS42 KCHS 240212
RWRCHS

Regional Weather Roundup
National Weather Service Charleston SC
1000 PM EDT MON APR 23 2018

NOTE: "fair" indicates few or no clouds below 12,000 feet with no
significant weather and/or obstructions to visibility.

Not all stations are quality controlled. Use data with caution,
especially dewpoint observations.

SCZ027-030-031-034>040-042>050-240300-
...Southeast South Carolina...

CITY           SKY/WX    TMP DP  RH WIND       PRES   REMARKS
N Charleston   LGT RAIN  67  65  93 SE18G25   29.98F FOG
Waterfront Prk   N/A     66  65  96 SE23G40   29.83S
Mount Pleasant LGT RAIN  64  64 100 E15G24    30.00R
Johns Island   CLOUDY    66  66 100 E12G20    29.98S FOG
Pinopolis        N/A     64  64 100 SE10G18   29.91R
Moncks Corner  HVY RAIN  64  63  94 SE7       30.01R
Summerville    LGT RAIN  64  63  94 SE6       29.99S
Beaufort MCAS  CLOUDY    70  69  97 SE8       29.94S
Beaufort Arpt  CLOUDY    68  66  94 SE9       29.94S
Hilton Head Is CLOUDY    68  66  94 VRB6G12   29.95S
Walterboro     CLOUDY    66  64  94 E8        29.97S
Allendale      CLOUDY    68  66  94 E3        29.95R

...Southern Midlands and Pee Dee...

CITY           SKY/WX    TMP DP  RH WIND       PRES   REMARKS
Georgetown     RAIN      63  63 100 SE22G32   30.03S
Kingstree      RAIN      63  61  94 E20G29    30.01R
Orangeburg     LGT RAIN  63  62  97 E6        29.98R
Barnwell         N/A     64  64 100 E5        29.96R
Aiken          LGT RAIN  61  61 100 E14       29.98S
Manning        RAIN      59  59 100 SE10      30.00R
Columbia       LGT RAIN  64  63  96 E9        29.98F
Sumter         HVY RAIN  63  61  94 E15       29.99F FOG
Florence       LGT RAIN  62  59  90 E18G26    30.04S
Myrtle Beach   LGT RAIN  64  61  90 E18       30.09R
N Myrtle Beach CLOUDY    64  60  87 E20G31    30.09R

$$

GAZ063-065-086>088-099>101-113>116-118-119-134>141-150-240300-
...Southeast Georgia...

CITY           SKY/WX    TMP DP  RH WIND       PRES   REMARKS
Savannah Arpt  CLOUDY    69  67  93 SE9       29.93R
Hunter AAF     FAIR      69  67  91 SE8       29.90
Fort Stewart   CLOUDY    69  67  93 SE7       29.90R
Statesboro     CLOUDY    70  32  24 CALM      29.93R
Sylvania       CLOUDY    70  68  94 SE5       29.94R
Claxton        CLOUDY    72  69  92 E9        29.91R

...CSRA, Central and far Southeast Georgia...

CITY           SKY/WX    TMP DP  RH WIND       PRES   REMARKS
Thomson        CLOUDY    66  63  90 S9G21     29.95S
Augusta-Bush   LGT RAIN  66  64  93 E9        29.91S
Augusta-Daniel LGT RAIN  67  63  87 E10G20    29.93R
Swainsboro     MOCLDY    64  63  94 SE6       29.90R THUNDER
Vidalia        CLOUDY    70  68  94 SE6       29.88S
Eastman        FAIR      69  61  75 CALM      29.89S
Hazlehurst     MOCLDY    73  68  83 S5        29.87R
Alma           FAIR      71  68  90 SE9       29.88R
Waycross       FAIR      71  68  90 S7        29.90R
Jesup          CLOUDY    72  66  83 CALM      29.91R
Baxley         FAIR      68  68 100 S7        29.88S
Brunswick      MOCLDY    70  66  88 SE5       29.93R
Saint Simons   FAIR      69  68  96 SE8       29.92R

$$

SCZ027-028-034-036>038-045-046-048>050-GAZ119-141-240300-
...Lake and Supplemental Coastal Observations...

STATION/POSITION TIME  TEMP    WIND        PRES    WAVE   SWELL
                       AIR SEA DIR/SP/G            HT/PER HT/PER/DIR
                 (UTC) (F)     (DEG/KT/KT) (MB)    (FT/S) (FT/S/D)
Winyah Bay       0045   64     110/ 20     1017.0
Lake Murray      0120   62      50/  6/ 14 1014.9
ACE Basin NERRS  0045   68     350/  4       N/A
Fort Pulaski     0136   67 66  130/  6/  8 1013.9R
Sapelo Island    0100   69     120/  9     1012.0

$$

ANZ835-935-AMZ111-154-330-350-352-354-370-450-454-472-240300-
...C-MAN and Buoy Observations...

STATION/POSITION TIME  TEMP    WIND        PRES    WAVE   SWELL
                       AIR SEA DIR/SP/G            HT/PER HT/PER/DIR
                 (UTC) (F)     (DEG/KT/KT) (MB)    (FT/S) (FT/S/D)
Buoy 41004       0150      67  120/ 31/ 39 1014.9R  16/10  13/130/10
Buoy 41008       0150   68 65  130/ 12/ 14 1012.8R   7/ 9   5/100/ 9
Folly Beach CMAN 0100   66     130/ 22/ 25 1015.5F
Capers Nearshore 0108   65 63  120/ 27/ 41 1014.6F
Fripp Nearshore  0108   66 64  120/ 10/ 16 1013.6S


STATION/POSITION TIME  TEMP    WIND        PRES    WAVE   SWELL
                       AIR SEA DIR/SP/G            HT/PER HT/PER/DIR
                 (UTC) (F)     (DEG/KT/KT) (MB)    (FT/S) (FT/S/D)
5E St. Marys GA  0200      67                N/A     5/ 8   2/ 90/11
Frying Pan Buoy  0150   68 69  120/ 31/ 37 1019.6F  11/ 8
Buoy 41025       0200   68 73  110/ 21/ 27 1025.8
Cape Lookout NC  0100          100/ 17/ 20 1024.2R
Buoy 41002       0150   69 72  110/ 23/ 27 1022.8S   7/ 6   2/150/11
Buoy 41010       0150   72 75  110/ 25/ 31 1015.8R  10/ 8   3/130/15
St Augustine FL  0200   69 69  180/  9/ 10 1014.2R


$$



USA.gov is the U.S. government's official web portal to all federal, state and local government web resources and services.